This is the latest recevied weather packets stored in our database for station/object SR2WXM. If no packets are shown the sender has not sent any weather packets the latest 10 day(s).
| Time | Temp. | Humidity | Pressure | Rain* | Wind** | Luminosity | Snow |
|---|---|---|---|---|---|---|---|
| 1777508102 | -2.22° C | 84% | 1028.7 hPa | 0 mm | - | - | - |
| 1777507202 | -2.22° C | 85% | 1029.1 hPa | 0 mm | - | - | - |
| 1777506302 | -2.22° C | 85% | 1029.1 hPa | 0 mm | - | - | - |
| 1777505402 | -1.11° C | 80% | 1029.1 hPa | 0 mm | - | - | - |
| 1777504503 | -1.11° C | 80% | 1029.1 hPa | 0 mm | - | - | - |
| 1777503602 | 0° C | 75% | 1028.7 hPa | 0 mm | - | - | - |
| 1777502702 | 0° C | 78% | 1028.7 hPa | 0 mm | - | - | - |
| 1777501801 | 0.56° C | 71% | 1028.7 hPa | 0 mm | - | - | - |
| 1777500902 | 0.56° C | 71% | 1028.7 hPa | 0 mm | - | - | - |
| 1777500002 | 0.56° C | 69% | 1028.7 hPa | 0 mm | - | - | - |
| 1777499102 | 1.67° C | 66% | 1028.4 hPa | 0 mm | - | - | - |
| 1777498201 | 1.67° C | 65% | 1028.4 hPa | 0 mm | - | - | - |
| 1777497302 | 1.67° C | 64% | 1028.4 hPa | 0 mm | - | - | - |
| 1777496402 | 1.67° C | 69% | 1028.4 hPa | 0 mm | - | - | - |
| 1777495502 | 1.67° C | 69% | 1028.4 hPa | 0 mm | - | - | - |
| 1777494607 | 1.67° C | 72% | 1028.4 hPa | 0 mm | - | - | - |
| 1777493704 | 0.56° C | 71% | 1028.1 hPa | 0 mm | - | - | - |
| 1777492804 | 1.67° C | 71% | 1028.1 hPa | 0 mm | - | - | - |
| 1777491902 | 2.78° C | 58% | 1028.1 hPa | 0 mm | - | - | - |
| 1777491003 | 2.78° C | 61% | 1028.1 hPa | 0 mm | - | - | - |
| 1777490103 | 3.89° C | 59% | 1028.1 hPa | 0 mm | - | - | - |
| 1777489204 | 3.89° C | 52% | 1027.7 hPa | 0 mm | - | - | - |
| 1777488303 | 5° C | 49% | 1027.7 hPa | 0 mm | - | - | - |
| 1777487403 | 5° C | 47% | 1027.7 hPa | 0 mm | - | - | - |
| 1777486502 | 6.67° C | 44% | 1027.4 hPa | 0 mm | - | - | - |
* Rain latest hour (hover to see other rain measurements)
** Current wind speed in m/s (hover to see current wind gust speed)